Location: Newark
(41.0400°S, 62.7845°W)
Time: 01:04:03
(UTC+00:00)

CUTE 1.7 + AOD 2 - Pass Details

Date: 07 February 2022
Orbit: 591 x 608 km, 97.7° (Epoch: 16 May)

Event Time Altitude Azimuth Distance (km) Brightness Sun altitude
Exits shadow 07:48:56 26° 341° (NNW) 1,202 ? -16.6°
Maximum altitude 07:51:01 49° 279° (W) 790 ? -16.3°
Drops below altitude 10° 07:55:12 10° 203° (SSW) 1,975 ? -15.7°
Sets 07:57:27 0° 198° (SSW) 2,883 ? -15.3°
